Tracking 30685 objects as of 18-Jun-2025
HD Live streaming from Space Station
objects crossing your sky now

NOAA 16 DEB

Track NOAA 16 DEB now!
10-day predictions


NORAD ID: 41080
Int'l Code: 2000-055AP
Perigee: 820.6 km
Apogee: 830.4 km
Inclination: 98.6 °
Period: 101.3 minutes
Semi major axis: 7196 km
RCS: Unknown
Launch date: September 21, 2000
Source: United States (US)
Launch site: AIR FORCE WESTERN TEST RANGE (AFWTR)

Note: This is SATELLITE DEBRIS
Your satellite tracking list
Your tracking list is empty




NASA's NSSDC Master Catalog

Two Line Element Set (TLE):
1 41080U 00055AP  25168.39933884 -.00000412  00000-0 -16702-3 0  9990
2 41080  98.5596 217.1866 0006821 196.5917 163.5038 14.22076507493010
Source of the keplerian elements: AFSPC